Starlink 6130

operational
NORAD ID: 57104 Int'l Des: 2023-090 Owner: SPXS Country: US Constellation: starlink
LEOCIRCULAR

About Starlink 6130

Description loading...

Live Position

Loading 3D Globe...

Upcoming Passes

Altitude History

Altitude vs Time

uPlot chart will show altitude changes over time

Two-Line Element Set

1 57104U 23090D 25339.25258605 .00001138 00000-0 99326-4 0 9992
2 57104 43.0057 68.1389 0001447 267.6240 92.4437 15.02540388136203
Epoch: Dec 5, 2025 • Age: 17 hours

Current Status

Altitude 569.4 km
Velocity 7.58 km/s
Sub-Earth Point -38.04°S, 57.22°W
Launch Date Jun 23, 2023
Age 2.4 years
Type internet

Technical Details

Classification Payload
Mass 305.00 kg
Dry Mass 290.00 kg
Total Mass 305.00 kg
Length 0.20 m
Diameter 2.80 m
Span 9.00 m
Shape Box + pan
Manufacturer SPXS
Bus Type Starlink
Phase Status In Orbit
Owner/State SPXS/US

Large Constellations

Loading constellations...